Overview Statistics Trail Chart Weather Telemetry Raw packets
 

This is the latest recevied weather packets stored in our database for station/object KC1BRV. If no packets are shown the sender has not sent any weather packets the latest 10 day(s).

<< 11 12 13 14 15 16 17 >>
Time Temp. Humidity Pressure Rain* Wind** Luminosity Snow
1788542302 27.78° C 59% 1010.5 hPa 0 mm - 685 W/m² -
1788541997 27.22° C 60% 1010.5 hPa 0 mm - 686 W/m² -
1788541693 27.22° C 63% 1010.6 hPa 0 mm - 156 W/m² -
1788541389 26.11° C 64% 1010.4 hPa 0 mm - 705 W/m² -
1788541089 26.67° C 64% 1010.3 hPa 0 mm - 109 W/m² -
1788540788 27.78° C 60% 1010.5 hPa 0 mm - 99 W/m² -
1788540482 26.67° C 62% 1010.7 hPa 0 mm - 706 W/m² -
1788540177 26.67° C 66% 1010.5 hPa 0 mm - 684 W/m² -
1788539874 26.67° C 64% 1010.3 hPa 0 mm - 163 W/m² -
1788539568 27.22° C 61% 1010.4 hPa 0 mm - 204 W/m² -
1788539268 26.67° C 66% 1010.5 hPa 0 mm - 696 W/m² -
1788538963 25.56° C 66% 1010.4 hPa 0 mm - 686 W/m² -
1788538658 25.56° C 68% 1010.7 hPa 0 mm - 708 W/m² -
1788538352 26.11° C 66% 1010.7 hPa 0 mm - 94 W/m² -
1788538048 26.67° C 65% 1010.8 hPa 0 mm - 122 W/m² -
1788537744 26.67° C 62% 1010.7 hPa 0 mm - 160 W/m² -
1788537443 26.67° C 63% 1010.8 hPa 0 mm - 771 W/m² -
1788537143 26.67° C 64% 1010.7 hPa 0 mm - 722 W/m² -
1788536841 26.67° C 63% 1010.7 hPa 0 mm - 710 W/m² -
1788536536 27.22° C 62% 1010.8 hPa 0 mm - 727 W/m² -
1788536232 27.22° C 64% 1010.9 hPa 0 mm - 708 W/m² -
1788535927 26.67° C 64% 1010.9 hPa 0 mm - 660 W/m² -
1788535623 26.67° C 65% 1010.8 hPa 0 mm - 678 W/m² -
1788535319 26.67° C 66% 1010.8 hPa 0 mm - 640 W/m² -
1788535014 26.11° C 66% 1010.9 hPa 0 mm - 638 W/m² -

* Rain latest hour (hover to see other rain measurements)
** Current wind speed in m/s (hover to see current wind gust speed)